Miscellaneous Local Product
Issued by NWS North Platte, NE

Home | Current Version | Previous Version | Text Only | Print | Product List | Glossary On
Versions: 1 2 3 4 5 6 7 8 9 10 11 12 13 14 15 16 17 18 19 20 21 22 23 24 25 26 27 28 29 30 31 32 33 34 35 36 37 38 39 40 41 42 43 44 45 46 47 48 49 50
900
AXUS43 KLBF 182310
MISLBF


WESTERN AND NORTH CENTRAL NEBRASKA HOURLY WEATHER ROUNDUP
NATIONAL WEATHER SERVICE NORTH PLATTE NE
600 PM CDT WED OCT 18 2017

NOTE: "FAIR" INDICATES FEW OR NO CLOUDS BELOW 12,000 FEET WITH NO
SIGNIFICANT WEATHER AND/OR OBSTRUCTIONS TO VISIBILITY.

NOTE: STATIONS NOT REPORTING VARIABLES SUCH AS SKY/WEATHER OR
PRESSURE ARE PROVIDED BY RAWS AND APRS NETWORKS AND ARE NOT UNDER
NATIONAL WEATHER SERVICE QUALITY CONTROL.

...OBSERVATIONS IN AND NEAR THE EASTERN PANHANDLE OF NEBRASKA...

CITY           SKY/WX    TMP DP  RH WIND       PRES   REMARKS
PINE RIDGE     CLEAR     67  28  23 S9        30.06S
GORDON         FAIR      65  31  27 S6        30.08R
CHADRON        SUNNY     70  26  19 S13       30.04F
ALLIANCE       SUNNY     68  28  22 SE8       30.08S
SIDNEY         SUNNY     71  23  16 SE10      30.10F
CRESCENT LAKE    N/A     69  29  22 E6          N/A
$$

...OBSERVATIONS IN NORTHERN NEBRASKA AND FAR SOUTHERN SOUTH DAKOTA...

CITY           SKY/WX    TMP DP  RH WIND       PRES   REMARKS
WINNER         FAIR      64  35  34 E5        30.06S
VALENTINE      CLEAR     66  30  26 NE5       30.08R
THEDFORD       CLEAR     68  33  27 NE7       30.09R
AINSWORTH      CLEAR     64  36  36 NE3       30.08R
O`NEILL        CLEAR     66  38  35 N6        30.06R
ORD            CLEAR     68  32  26 N7        30.03R
BROKEN BOW     CLEAR     69  36  29 NE9       30.06R
VALENTINE NWR    N/A     66  30  26 E6          N/A
HALSEY           N/A     70  33  25 NE5G12      N/A
BUTTE            N/A     65  34  31 N3          N/A
CHAMBERS         N/A     66  36  33 NE3         N/A
EWING            N/A     68  38  33 CALM        N/A
$$

...OBSERVATIONS IN SOUTHWEST NEBRASKA AND FAR NORTHEAST COLORADO...

CITY           SKY/WX    TMP DP  RH WIND       PRES   REMARKS
WRAY           FAIR      77  19  11 NE7       30.08R
HOLYOKE        FAIR      77  27  15 E7        30.09S
IMPERIAL       SUNNY     73  25  16 E10       30.08R
OGALLALA       SUNNY     72  30  21 E8        30.09R
NORTH PLATTE   CLEAR     70  33  25 NE12      30.07R
MCCOOK         CLEAR     73  33  23 NE16      30.04R
LEXINGTON      CLEAR     69  37  30 NE10      30.05R
STAPLETON        N/A     66  36  33 CALM        N/A
GOTHENBURG       N/A     72  32  22 N7          N/A
CALLAWAY         N/A     71  36  28 NE10        N/A
$$

...OBSERVATIONS IN CENTRAL LINCOLN COUNTY AREA...

CITY           SKY/WX    TMP DP  RH WIND       PRES   REMARKS
N.P. AIRPORT   CLEAR     70  33  25 NE12      30.07R
N.P. DOWNTOWN    N/A     69  36  30 E5          N/A
N.P. SOUTHEAST   N/A     70  36  28 NE3         N/A
N.P. HILLCREST   N/A     69  35  29 E9          N/A
$$

...SOME OBSERVATIONS FROM AROUND THE REGION...

CITY           SKY/WX    TMP DP  RH WIND       PRES   REMARKS
DENVER         MOSUNNY   75  17  11 SE8       30.11S
LIMON          SUNNY     74  15  10 S10       30.14S
ASPEN          CLOUDY    65   9  11 NW8       30.26F
LARAMIE        SUNNY     66   1   7 W16       30.20S
CASPER         SUNNY     70   7   8 W18       30.06F
CHEYENNE       SUNNY     72   4   7 W8        30.14F
SCOTTSBLUFF    SUNNY     71  26  18 SE10      30.07F
GRAND ISLAND   CLEAR     71  37  28 N14       30.02R
OMAHA          PTCLDY    74  51  44 NW5       29.95R
SIOUX FALLS    MOCLDY    65  35  33 N8        30.01R
PIERRE         CLEAR     62  21  20 CALM      30.02S
RAPID CITY     CLEAR     64  28  25 S16       30.01F
BISMARCK       PTCLDY    58  22  24 W9        29.96S
KANSAS CITY    MOCLDY    69  51  52 S9        30.00R
HILL CITY      CLEAR     79  35  20 N10       30.00R
WICHITA        MOCLDY    70  51  51 S7        29.99R
DODGE CITY     CLOUDY    77  45  32 S10       30.00R
OKLAHOMA CITY  MOCLDY    75  46  35 S10       30.03R
DALLAS         MOCLDY    81  36  19 S14G20    30.04F
AMARILLO       CLOUDY    75  45  34 E6        30.03S
$$




USA.gov is the U.S. government's official web portal to all federal, state and local government web resources and services.